Regional Weather Roundup
Issued by NWS San Angelo, TX

Home | Current Version | Previous Version | Text Only | Print | Product List | Glossary On
Versions: 1 2 3 4 5 6 7 8 9 10 11 12 13 14 15 16 17 18 19 20 21 22 23 24 25 26 27 28 29 30 31 32 33 34 35 36 37 38 39 40 41 42 43 44 45 46 47 48 49 50
000
ASUS44 KSJT 032202
RWRSJT
WEST CENTRAL TEXAS REGIONAL WEATHER ROUNDUP
NATIONAL WEATHER SERVICE SAN ANGELO TX
500 PM CDT FRI JUL 03 2015

NOTE: "FAIR" INDICATES FEW OR NO CLOUDS BELOW 12,000 FEET WITH NO
SIGNIFICANT WEATHER AND/OR OBSTRUCTIONS TO VISIBILITY.

TXZ049-054-064>066-071>073-076>078-098-099-113-114-127-128-139-140-
154-155-168>170-032300
...LOCATIONS ACROSS WEST CENTRAL TEXAS...

CITY           SKY/WX    TMP DP  RH WIND       PRES   REMARKS
SAN ANGELO     SUNNY     90  63  40 SE12G17   29.95F
ABILENE        PTSUNNY   90  62  39 S7        29.96F
DYESS AFB      PTSUNNY   90  65  44 S6        29.94F
JUNCTION       SUNNY     90  59  35 S18       29.96F
SWEETWATER     PTSUNNY   87  62  42 S7        30.01F
BROWNWOOD      NOT AVBL
COLEMAN        NOT AVBL
SONORA         NOT AVBL
OZONA          NOT AVBL
BRADY          NOT AVBL
$$

TEXAS PANHANDLE/OKLAHOMA PANHANDLE

CITY           SKY/WX    TMP DP  RH WIND       PRES   REMARKS
AMARILLO       SUNNY     87  57  35 SE10G17   30.03F
BORGER         MOSUNNY   89  60  37 E6        29.99F
CANADIAN       MOSUNNY   89  66  45 SE8       29.96F
DALHART        MOSUNNY   93  52  24 SE12G22   30.02F
DUMAS          PTCLDY    84  57  39 E12G18    30.01F
GUYMON         NOT AVBL
HEREFORD       NOT AVBL
PAMPA          NOT AVBL
PERRYTON       NOT AVBL
$$

SOUTHERN PANHANDLE/SOUTH PLAINS/ROLLING PLAINS

CITY           SKY/WX    TMP DP  RH WIND       PRES   REMARKS
LUBBOCK        PTSUNNY   89  63  41 S13       30.00F
SNYDER         NOT AVBL
CHILDRESS      MOSUNNY   90  67  46 E7        29.94F
SEMINOLE       NOT AVBL
$$

PERMIAN BASIN

CITY           SKY/WX    TMP DP  RH WIND       PRES   REMARKS
MIDLAND        MOSUNNY   87  63  44 E12       29.99F
ODESSA         MOSUNNY   88  62  41 SE12G17   30.00F
WINK           SUNNY     91  61  36 E12G18    29.95F
$$

FAR WEST/SOUTHWEST MOUNTAINS/TRANS PECOS

CITY           SKY/WX    TMP DP  RH WIND       PRES   REMARKS
ALPINE         NOT AVBL
DRYDEN           N/A     88  66  48 SE9       29.93F
EL PASO        MOSUNNY   95  52  23 NE12      29.97F
FORT STOCKTON  MOSUNNY   86  63  45 E13G24    29.99F
GUADALUPE PASS CLOUDY    76  57  51 NE25      30.15R
MARFA          MOSUNNY  N/A N/A N/A NE15G21   30.09F
PECOS          NOT AVBL
$$

DALLAS/FORT WORTH METROPLEX

CITY           SKY/WX    TMP DP  RH WIND       PRES   REMARKS
DFW AIRPORT    CLOUDY    92  66  42 SW10      29.91F
FTW MEACHAM    PTSUNNY   90  68  48 SW10      29.92F
DAL-EXECUTIVE  CLOUDY    87  69  54 S7        29.92F
GRAND PRAIRIE  NOT AVBL
ADDISON        NOT AVBL
MESQUITE       PTCLDY    88  70  55 S9        29.93F
LANCASTER      NOT AVBL
$$

NORTH CENTRAL TEXAS

CITY           SKY/WX    TMP DP  RH WIND       PRES   REMARKS
SHRMAN/DENISON NOT AVBL
GAINESVILLE    NOT AVBL
BRIDGEPORT     MOCLDY    88  72  58 SW5       29.95F
DENTON         CLOUDY    89  68  49 SW8       29.91F
WAXAHACHIE     MOCLDY    90  71  52 SW8       29.95F
GRANBURY       NOT AVBL
$$

WESTERN NORTH TEXAS

CITY           SKY/WX    TMP DP  RH WIND       PRES   REMARKS
WICHITA FALLS  SUNNY     91  71  51 S17       29.89F
VERNON         PTCLDY    97  55  24 CALM      29.90F
BRECKENRIDGE   NOT AVBL
COMANCHE       CLOUDY    89  67  48 S6        29.97S
$$

CENTRAL AND SOUTH CENTRAL TEXAS

CITY           SKY/WX    TMP DP  RH WIND       PRES   REMARKS
AUSTIN/BERGSTM MOSUNNY   90  70  51 S10       29.93F
WACO           MOSUNNY   91  68  46 S12       29.94F
HILLSBORO      NOT AVBL
TEMPLE         CLOUDY    90  66  45 SE10      29.95S
KILLEEN-GRAY   PTSUNNY   89  67  49 S13       29.95F
FORT HOOD      PTSUNNY   89  67  47 S10       29.94F
GEORGETOWN     MOSUNNY   91  64  40 S12       29.93F
LAGO VISTA     FAIR      88  67  48 S8        29.98S
SAN MARCOS     MOSUNNY   91  70  49 SE10G16   29.95F
NEW BRAUNFELS  PTSUNNY   91  71  51 SE15      29.93F
RANDOLPH AFB   PTSUNNY   88  70  54 SE14      29.94F
SAN ANTONIO    PTSUNNY   90  69  50 SE13      29.95F
STINSON        MOSUNNY   89  69  51 SE10      29.91F
PLEASANTON     NOT AVBL
LA GRANGE      NOT AVBL
GIDDINGS       NOT AVBL
$$

EAST TEXAS

CITY           SKY/WX    TMP DP  RH WIND       PRES   REMARKS
PARIS          MOSUNNY   84  70  61 W15       29.93F
CLARKSVILLE    NOT AVBL
TYLER          CLOUDY    87  73  62 SW6       29.95F
LONGVIEW       CLOUDY    89  75  63 SW6       29.94F
PALESTINE      PTCLDY    92  70  48 SW9       29.96F
NACOGDOCHES    MOSUNNY  N/A N/A N/A SW9       29.95F
$$

TEXAS HILL COUNTRY AND EDWARDS PLATEAU

CITY           SKY/WX    TMP DP  RH WIND       PRES   REMARKS
LLANO          NOT AVBL
HORSESHOE BAY  FAIR      92  64  40 S6        29.96S
KERRVILLE      SUNNY     86  68  55 S14       29.98F
FREDERICKSBRG  NOT AVBL
ROCKSPRINGS    NOT AVBL
HONDO          MOSUNNY   89  68  49 S13       29.95F
UVALDE         PTCLDY    88  70  53 SE10G17   29.93S
DEL RIO        MOSUNNY   90  67  46 SE14G25   29.89F
$$

SOUTHEAST TEXAS

CITY           SKY/WX    TMP DP  RH WIND       PRES   REMARKS
COLLEGE STN    PTSUNNY   90  72  55 SE10      29.95F
CALDWELL       NOT AVBL
CROCKETT       NOT AVBL
BRENHAM        PTSUNNY   90  73  58 S7        29.95F
HUNTSVILLE     MOSUNNY   90  71  53 VRB5      29.96F
CONROE           N/A     83  74  74 SW5       29.97S THUNDER
HOUSTON BUSH   PTSUNNY   87  74  64 S14       29.96F
HOUSTON HOBBY  PTSUNNY   88  75  65 S14       29.96F
PERLAND        CLOUDY    90  73  57 S10       29.98F
WHARTON        NOT AVBL
$$

THE UPPER TEXAS COAST

CITY           SKY/WX    TMP DP  RH WIND       PRES   REMARKS
ORANGE         PTCLDY    89  68  50 S14       30.00S
PORT ARTHUR    MOSUNNY   89  74  60 S12       29.98S
GALVESTON      PTSUNNY   87  77  72 S12       29.99F
ANGLETON       PTSUNNY   89  75  63 S14G21    29.97F
BAY CITY       NOT AVBL
$$

TEXAS COASTAL BEND, RIO GRANDE PLAINS DEEP SOUTH TEXAS

CITY           SKY/WX    TMP DP  RH WIND       PRES   REMARKS
VICTORIA       MOSUNNY   91  72  53 S18       29.95F
BEEVILLE       NOT AVBL
ROCKPORT       LGT RAIN  87  76  69 SE14      29.94F
PORT ARANSAS   CLEAR     85  78  79 SE13      29.95S
PORT LAVACA    PTCLDY    88  76  68 SE16      29.96F
CORPUS CHRISTI PTSUNNY   89  74  60 SE17      29.93F
KINGSVILLE NAS SUNNY     90  77  65 SE20G28   29.92F
COTULLA        MOSUNNY   92  66  42 SE14G25   29.89F
LAREDO         MOSUNNY   96  65  35 E20       29.88F
BROWNSVILLE    MOSUNNY   89  74  60 SE20      29.93S
PORT ISABEL    MOSUNNY   87  76  69 SE18      29.92S
HEBBRONVILLE   NOT AVBL
MCALLEN        MOSUNNY   93  72  50 SE17G28   29.91R
WESLACO        MOSUNNY   92  70  47 SE15G25   29.91R
FALFURRIAS     PTCLDY    91  74  57 SE14G21   29.90F
EDINBURG       PTCLDY    93  71  48 SE18      29.90F
$$



USA.gov is the U.S. government's official web portal to all federal, state and local government web resources and services.